Fremont, MI

6:40 AM EST on December 11, 2019 (GMT -0500)
Fremont

Weather History for KFFX - October, 2019

Change the Weather History Date:

Thursday, October 3, 2019

  Actual Average (KMKG) Record (KMKG)
Temperature  
Mean Temperature 56 °F 55 °F  
Max Temperature 62 °F 64 °F 83 °F (2018)
Min Temperature 50 °F 46 °F 25 °F (1974)
Degree Days  
Heating Degree Days 9 10  
Month to date heating degree days 30  
Since 1 July heating degree days 203  
Cooling Degree Days 0 0  
Month to date cooling degree days 2  
Year to date cooling degree days 563  
Growing Degree Days 6 (Base 50)    
Moisture  
Dew Point 49 °F    
Average Humidity 83    
Maximum Humidity 99    
Minimum Humidity 55    
Precipitation  
Precipitation 0.00 in 0.11 in 3.21 in (1954)
Month to date precipitation 0.32  
Year to date precipitation 24.79  
Snow  
Snow - 0.00 in - ()
Month to date snowfall 0.0  
Since 1 July snowfall 0.0  
Since 1 September snowfall 0.0  
Snow Depth -    
Sea Level Pressure  
Sea Level Pressure 30.01 in    
Wind  
Wind Speed 8 mph ()    
Max Wind Speed 20 mph    
Max Gust Speed 25 mph    
Visibility 8.1 miles    
Events Rain    
T = Trace of Precipitation, MM = Missing Value Source: Averaged Metar Reports

Daily Weather History Graph

Daily Weather History Graph

Search for Another Location

Airport or City:

Astronomy

Oct. 03, 2019 Rise Set
Actual Time 7:43 AM EDT 7:21 PM EDT
Civil Twilight 7:14 AM EDT 7:50 PM EDT
Nautical Twilight 6:41 AM EDT 8:23 PM EDT
Astronomical Twilight 6:08 AM EDT 8:56 PM EDT
Moon 1:22 PM EDT (10/3) 10:51 PM EDT (10/3)
Length of Visible Light 12h 35m
Length of Day
11h 38m
Waxing Crescent, 29% of the Moon is Illuminated
Oct 3
Waxing Crescent
Oct 5
First Quarter
Oct 13
Full
Oct 21
Last Quarter
Oct 27
New

Hourly Weather History & Observations

Time (EDT) Temp. Dew Point Humidity Pressure Visibility Wind Dir Wind Speed Gust Speed Precip Events Conditions
12:15 AM 50.2 °F 49.1 °F 96% 30.02 in 5.0 mi East 10.4 mph 17.3 mph N/A Rain Rain
12:35 AM 50.4 °F 49.1 °F 95% 30.02 in 5.0 mi East 13.8 mph 18.4 mph N/A Rain Light Rain
12:58 AM 50.2 °F 49.3 °F 97% 30.01 in 4.0 mi ENE 10.4 mph 16.1 mph N/A Rain Light Rain
1:16 AM 50.2 °F 49.3 °F 97% 30.00 in 4.0 mi East 13.8 mph - N/A Rain Light Rain
1:35 AM 50.2 °F 49.3 °F 97% 30.00 in 4.0 mi East 11.5 mph - N/A Rain Light Rain
1:36 AM 50.2 °F 49.3 °F 97% 30.00 in 4.0 mi East 12.7 mph - N/A Rain Light Rain
1:55 AM 50.2 °F 49.1 °F 96% 29.99 in 7.0 mi East 9.2 mph - N/A Rain Rain
1:56 AM 50.2 °F 49.1 °F 96% 29.99 in 7.0 mi East 8.1 mph - N/A Rain Rain
2:19 AM 50.0 °F 48.9 °F 96% 29.98 in 10.0 mi East 10.4 mph 16.1 mph N/A Rain Light Rain
2:37 AM 50.2 °F 49.1 °F 96% 29.97 in 10.0 mi ESE 9.2 mph 18.4 mph N/A Rain Light Rain
2:55 AM 50.4 °F 49.1 °F 95% 29.96 in 10.0 mi East 9.2 mph 17.3 mph N/A Rain Light Rain
2:56 AM 50.4 °F 49.1 °F 95% 29.96 in 10.0 mi East 9.2 mph 17.3 mph N/A Rain Light Rain
3:15 AM 50.5 °F 49.3 °F 95% 29.96 in 10.0 mi East 9.2 mph 17.3 mph N/A Rain Light Rain
3:16 AM 50.5 °F 49.3 °F 95% 29.96 in 10.0 mi East 10.4 mph 17.3 mph N/A Rain Light Rain
3:35 AM 50.9 °F 49.5 °F 95% 29.97 in 10.0 mi ESE 9.2 mph - N/A   Overcast
3:58 AM 50.9 °F 49.5 °F 95% 29.97 in 10.0 mi ESE 10.4 mph - N/A   Overcast
4:16 AM 51.1 °F 49.6 °F 95% 29.96 in 10.0 mi ESE 9.2 mph - N/A   Overcast
4:35 AM 51.3 °F 50.0 °F 95% 29.95 in 10.0 mi East 8.1 mph - N/A   Overcast
4:36 AM 51.3 °F 50.0 °F 95% 29.95 in 10.0 mi East 9.2 mph - N/A   Overcast
4:55 AM 51.3 °F 50.0 °F 95% 29.95 in 10.0 mi East 6.9 mph - N/A   Overcast
4:56 AM 51.3 °F 50.0 °F 95% 29.95 in 10.0 mi East 6.9 mph - N/A   Overcast
5:19 AM 51.4 °F 50.2 °F 95% 29.94 in 7.0 mi East 9.2 mph - N/A   Overcast
5:37 AM 51.3 °F 50.5 °F 97% 29.94 in 4.0 mi ESE 8.1 mph - N/A   Overcast
5:55 AM 51.3 °F 50.7 °F 98% 29.94 in 3.0 mi ESE 5.8 mph - N/A   Overcast
5:56 AM 51.3 °F 50.7 °F 98% 29.94 in 3.0 mi ESE 5.8 mph - N/A   Overcast
6:15 AM 51.4 °F 50.9 °F 98% 29.94 in 5.0 mi East 9.2 mph - N/A   Overcast
6:16 AM 51.4 °F 50.9 °F 98% 29.94 in 5.0 mi ESE 6.9 mph - N/A   Overcast
6:35 AM 51.6 °F 50.9 °F 97% 29.94 in 5.0 mi ESE 8.1 mph - N/A   Overcast
6:40 AM 51.8 °F 50.9 °F 97% 29.94 in 7.0 mi ESE 5.8 mph - N/A   Overcast
6:58 AM 51.8 °F 50.9 °F 97% 29.93 in 3.0 mi ESE 8.1 mph - N/A Rain Rain
7:16 AM 51.8 °F 51.1 °F 97% 29.93 in 3.0 mi ESE 5.8 mph - N/A Rain Rain
7:35 AM 51.8 °F 51.3 °F 98% 29.92 in 3.0 mi ESE 5.8 mph - N/A   Drizzle
7:55 AM 52.0 °F 51.4 °F 98% 29.92 in 4.0 mi ESE 4.6 mph - N/A   Overcast
7:56 AM 52.0 °F 51.4 °F 98% 29.93 in 4.0 mi ESE 5.8 mph - N/A   Overcast
8:18 AM 52.2 °F 51.6 °F 98% 29.93 in 2.5 mi Calm Calm - N/A   Overcast
8:37 AM 52.3 °F 51.8 °F 98% 29.93 in 5.0 mi ESE 4.6 mph - N/A   Overcast
8:55 AM 52.7 °F 52.0 °F 97% 29.92 in 3.0 mi ESE 4.6 mph - N/A   Overcast
9:15 AM 52.9 °F 52.5 °F 99% 29.92 in 3.0 mi ESE 4.6 mph - N/A   Overcast
9:35 AM 53.1 °F 52.7 °F 99% 29.94 in 7.0 mi Calm Calm - N/A   Overcast
9:40 AM 53.2 °F 52.7 °F 98% 29.94 in 4.0 mi Calm Calm - N/A   Overcast
9:58 AM 53.8 °F 53.2 °F 98% 29.94 in 5.0 mi ESE 3.5 mph - N/A   Overcast
10:15 AM 53.8 °F 53.2 °F 98% 29.95 in 1.2 mi Calm Calm - N/A   Overcast
10:35 AM 54.5 °F 54.0 °F 98% 29.95 in 3.0 mi Calm Calm - N/A   Light Drizzle
10:36 AM 54.5 °F 54.0 °F 98% 29.95 in 3.0 mi Calm Calm - N/A   Light Drizzle
10:55 AM 54.7 °F 54.1 °F 98% 29.95 in 10.0 mi Calm Calm - N/A   Overcast
10:56 AM 54.9 °F 54.3 °F 98% 29.94 in 10.0 mi Calm Calm - N/A   Overcast
11:19 AM 55.8 °F 55.2 °F 98% 29.95 in 10.0 mi Calm Calm - N/A   Overcast
11:37 AM 56.8 °F 55.9 °F 97% 29.96 in 10.0 mi Calm Calm - N/A   Overcast
11:55 AM 58.6 °F 57.2 °F 95% 29.96 in 10.0 mi West 5.8 mph - N/A   Overcast
12:15 PM 60.1 °F 58.1 °F 93% 29.96 in 10.0 mi West 5.8 mph - N/A   Overcast
12:16 PM 60.3 °F 58.1 °F 93% 29.96 in 10.0 mi West 5.8 mph - N/A   Overcast
12:35 PM 61.9 °F 58.5 °F 89% 29.96 in 10.0 mi West 5.8 mph - N/A   Overcast
12:40 PM 61.9 °F 58.5 °F 89% 29.96 in 10.0 mi West 8.1 mph - N/A   Overcast
12:58 PM 62.8 °F 58.8 °F 87% 29.95 in 10.0 mi West 5.8 mph - N/A   Overcast
1:16 PM 62.8 °F 55.4 °F 77% 29.96 in 10.0 mi West 9.2 mph - N/A   Overcast
1:35 PM 61.3 °F 58.1 °F 89% 29.97 in 7.0 mi WNW 13.8 mph - N/A   Overcast
1:36 PM 61.3 °F 58.1 °F 89% 29.97 in 7.0 mi WNW 15.0 mph - N/A   Overcast
1:55 PM 61.7 °F 55.2 °F 79% 29.98 in 10.0 mi WNW 17.3 mph 24.2 mph N/A   Overcast
1:56 PM 61.3 °F 55.6 °F 81% 29.98 in 10.0 mi WNW 16.1 mph 24.2 mph N/A   Overcast
2:19 PM 60.1 °F 51.4 °F 73% 29.99 in 10.0 mi WNW 18.4 mph 25.3 mph N/A   Overcast
2:37 PM 60.1 °F 50.2 °F 70% 29.99 in 10.0 mi WNW 18.4 mph 21.9 mph N/A   Overcast
2:55 PM 59.5 °F 50.9 °F 73% 29.99 in 10.0 mi West 12.7 mph - N/A   Overcast
3:15 PM 59.2 °F 52.5 °F 79% 30.00 in 10.0 mi WNW 13.8 mph 20.7 mph N/A   Overcast
3:16 PM 59.2 °F 52.2 °F 78% 30.00 in 10.0 mi WNW 12.7 mph 20.7 mph N/A   Overcast
3:35 PM 59.2 °F 51.4 °F 75% 30.01 in 10.0 mi WNW 15.0 mph - N/A   Overcast
3:40 PM 59.4 °F 50.0 °F 71% 30.00 in 10.0 mi West 13.8 mph 18.4 mph N/A   Overcast
3:58 PM 59.4 °F 47.8 °F 66% 30.01 in 10.0 mi West 13.8 mph 21.9 mph N/A   Overcast
4:16 PM 58.6 °F 48.2 °F 68% 30.02 in 10.0 mi WNW 15.0 mph 23.0 mph N/A   Overcast
4:35 PM 58.6 °F 47.3 °F 66% 30.03 in 10.0 mi WNW 19.6 mph - N/A   Overcast
4:55 PM 57.6 °F 46.0 °F 65% 30.04 in 10.0 mi WNW 15.0 mph 19.6 mph N/A   Overcast
5:19 PM 58.1 °F 44.2 °F 60% 30.05 in 10.0 mi WNW 12.7 mph 18.4 mph N/A   Overcast
5:37 PM 57.2 °F 45.0 °F 64% 30.06 in 10.0 mi WNW 11.5 mph 20.7 mph N/A   Overcast
5:55 PM 56.7 °F 45.0 °F 65% 30.06 in 10.0 mi WNW 12.7 mph 20.7 mph N/A   Overcast
6:15 PM 56.3 °F 43.7 °F 63% 30.07 in 10.0 mi WNW 10.4 mph 20.7 mph N/A   Overcast
6:35 PM 55.8 °F 43.9 °F 64% 30.08 in 10.0 mi WNW 9.2 mph - N/A   Overcast
6:40 PM 55.8 °F 43.5 °F 63% 30.08 in 10.0 mi WNW 12.7 mph - N/A   Overcast
6:58 PM 55.4 °F 43.0 °F 63% 30.09 in 10.0 mi WNW 11.5 mph - N/A   Overcast
7:16 PM 55.4 °F 42.8 °F 63% 30.09 in 10.0 mi WNW 10.4 mph 17.3 mph N/A   Overcast
7:35 PM 54.9 °F 42.4 °F 63% 30.10 in 10.0 mi WNW 10.4 mph - N/A   Overcast
7:55 PM 54.5 °F 41.0 °F 60% 30.11 in 10.0 mi WNW 11.5 mph - N/A   Mostly Cloudy
8:19 PM 54.5 °F 41.2 °F 61% 30.12 in 10.0 mi WNW 10.4 mph - N/A   Overcast
8:37 PM 54.3 °F 40.5 °F 59% 30.13 in 10.0 mi WNW 9.2 mph - N/A   Overcast
8:55 PM 54.0 °F 40.8 °F 61% 30.14 in 10.0 mi NW 5.8 mph - N/A   Overcast
8:56 PM 54.0 °F 41.0 °F 62% 30.14 in 10.0 mi NW 6.9 mph - N/A   Overcast
9:15 PM 54.0 °F 40.8 °F 61% 30.14 in 10.0 mi WNW 6.9 mph - N/A   Overcast
9:35 PM 54.0 °F 41.4 °F 62% 30.14 in 10.0 mi WNW 4.6 mph - N/A   Overcast
9:58 PM 53.8 °F 41.9 °F 64% 30.15 in 10.0 mi NW 4.6 mph - N/A   Overcast
10:16 PM 53.8 °F 41.4 °F 63% 30.15 in 10.0 mi WNW 10.4 mph - N/A   Overcast
10:35 PM 54.1 °F 40.1 °F 59% 30.16 in 10.0 mi NW 9.2 mph - N/A   Overcast
10:36 PM 54.1 °F 40.1 °F 59% 30.16 in 10.0 mi NW 8.1 mph - N/A   Overcast
10:55 PM 54.3 °F 38.7 °F 55% 30.17 in 10.0 mi NW 6.9 mph - N/A   Overcast
10:56 PM 54.3 °F 38.7 °F 55% 30.17 in 10.0 mi NW 6.9 mph - N/A   Overcast
11:19 PM 54.0 °F 39.0 °F 57% 30.17 in 10.0 mi NW 9.2 mph - N/A   Overcast
11:37 PM 54.1 °F 39.7 °F 58% 30.18 in 10.0 mi NW 8.1 mph - N/A   Overcast
11:55 PM 53.6 °F 40.5 °F 61% 30.18 in 10.0 mi WNW 5.8 mph - N/A   Mostly Cloudy
11:56 PM 53.4 °F 40.5 °F 61% 30.18 in 10.0 mi WNW 5.8 mph - N/A   Mostly Cloudy